Home   Weather   Atlantic City   Past weeks

Flag for USA Past Weather in Atlantic City, New Jersey, USA — Yesterday and Last 2 Weeks

Now
31 °F

Clear.


Feels Like: 22 °F
Forecast: 31 / 39 °F
Wind: 10 mph from Northwest

Location: Atlantic City International Airport

Current Time: Dec 9, 2016 at 10:19:44 pm

Latest Report: Dec 9, 2016 at 9:54 pm


Visibility: 10 mi

Pressure: 30.32 "Hg

Humidity: 57%

Dew Point: 17 °F

Location of Atlantic CityLocation

Past Weather in Atlantic City — Graph

°F

Atlantic City Temperature Yesterday

Maximum temperature yesterday: 44 °F (at 2:54 pm)
Minimum temperature yesterday: 30 °F (at 1:54 am)
Average temperature yesterday: 36 °F

High & Low Weather Summary for the Past Weeks

 TemperatureHumidityPressure
High64 °F (Dec 1, 3:02 am)97% (Nov 30, 3:54 am)30.33 "Hg (Nov 30, 3:54 am)
Low26 °F (Nov 28, 4:54 am)38% (Nov 28, 11:54 am)29.51 "Hg (Dec 1, 2:54 am)
Average45 °F71%30.03 "Hg
* Reported Nov 24 8:54 pm — Dec 9 8:54 pm, Atlantic City, Weather by CustomWeather, © 2016

Note: Actual official high and low records may vary slightly from our data, if they occured in-between our weather recording intervals... More about our weather records

Advertising

Atlantic City Weather History for the Previous 24 Hours

Scroll right to see more
 ConditionsComfort  
Time TempWeatherWind HumidityBarometerVisibility
8:54 pm
Fri, Dec 9
32 °FClear.12 mph54%30.33 "Hg10 mi
7:54 pm33 °FClear.12 mph49%30.32 "Hg10 mi
6:54 pm33 °FClear.14 mph49%30.30 "Hg10 mi
5:54 pm34 °FClear.6 mph48%30.28 "Hg10 mi
4:54 pm35 °FPassing clouds.10 mph46%30.25 "Hg10 mi
3:54 pm36 °FPartly sunny.14 mph46%30.23 "Hg10 mi
2:54 pm38 °FPartly sunny.22 mph43%30.20 "Hg10 mi
1:54 pm37 °FOvercast.20 mph44%30.19 "Hg10 mi
12:54 pm39 °FPassing clouds.20 mph43%30.18 "Hg10 mi
11:54 am39 °FPassing clouds.20 mph43%30.19 "Hg10 mi
10:54 am38 °FSunny.17 mph46%30.21 "Hg10 mi
9:54 am35 °FSunny.20 mph50%30.21 "Hg10 mi
8:54 am32 °FSunny.14 mph54%30.19 "Hg10 mi
7:54 am30 °FSunny.12 mph56%30.18 "Hg10 mi
6:54 am28 °FClear.9 mph61%30.17 "Hg10 mi
5:54 am29 °FClear.12 mph56%30.15 "Hg10 mi
4:54 am29 °FClear.9 mph56%30.14 "Hg10 mi
3:54 am30 °FClear.12 mph54%30.13 "Hg10 mi
2:54 am30 °FClear.10 mph54%30.12 "Hg10 mi
1:54 am31 °FClear.12 mph49%30.11 "Hg10 mi
12:54 am31 °FClear.13 mph49%30.09 "Hg10 mi
11:54 pm
Thu, Dec 8
32 °FClear.15 mph47%30.09 "Hg10 mi
10:54 pm33 °FClear.15 mph49%30.08 "Hg10 mi
Weather by CustomWeather, © 2016

See weather overviewHow to use our weather pages